Volver al catálogo

TITAN 34D TRANSTAGE DEB

ActivoGTO
NORAD 23040·DEBRIS·🇺🇸 United States

Lanzado Sep 2, 1988 desde Cape Canaveral Space Force Station

Loading…

TLE

EnvejeciendoSource: Space-Track

Época: Sep 14, 2026, 08:31 UTC

1 23040U 88077K   26257.35543065  .00000251  00000-0  99106-3 0  9998
2 23040  27.2647 355.3712 7302792 355.5780   0.4893  2.19069966 58801

Sigue TITAN 34D TRANSTAGE DEB en tiempo real con AllMySat

Download on the App Store